[[{"header":{"parameterUnit":"m.s-1","parameterCategory":1,"la1":30.2991,"la2":30.254,"lo1":-89.0895,"lo2":-89.0444,"dx":0.0017,"dy":0.0017,"nx":28,"ny":28,"refTime":"2022-12-14T15:00:00:Z","depth":0,"parameterNumber":2,"parameterNumberName":"U-component_of_WINDS"},"data":[0,0,0,0,0,0,0,0,0,0,0,0,0,0,0,0,0,0,0,0,0,0,0,0,0,0,0,0,0,0,0,0,0,0,0,0,0,0,0,0,0,0,0,0,0,0,0,0,0,0,0,0,0,0,0,0,0,0,1.4263,1.4262,0,1.4132,1.4131,1.4129,1.4013,1.4011,1.401,1.4009,1.3884,1.3882,1.388,0,0,0,0,0,0,0,0,0,0,0,0,0,1.4422,1.442,1.4263,1.4262,1.426,1.4132,1.4131,1.4129,1.4013,1.4011,1.401,1.4008,1.3885,1.3882,1.388,0,0,0,0,0,0,0,0,0,0,0,0,0,1.4329,1.4419,1.4264,1.4187,1.4178,1.4133,1.4131,1.4128,1.4013,1.4011,1.4009,1.4007,1.3885,1.3883,1.388,1.3903,0,0,1.387,1.3869,0,0,0,0,0,0,0,0,1.4334,1.4323,1.4199,1.4192,1.4182,1.4086,1.4141,1.4053,1.4014,1.4076,1.4009,1.4006,1.3954,1.3945,1.3925,1.3897,1.3891,1.387,1.3868,1.3867,1.3866,0,0,0,0,0,0,0,1.4341,1.4328,1.4212,1.4198,1.4187,1.4162,1.4146,1.4124,1.4029,1.4071,1.4062,1.4047,1.3949,1.3928,1.3921,1.389,1.387,1.3867,1.3866,1.3864,1.3874,1.3876,0,0,0,0,0,0,1.4358,1.4334,1.4216,1.4208,1.4254,1.416,1.4143,1.412,1.4028,1.4012,1.4049,1.4043,1.3935,1.3925,1.3917,1.3937,1.3867,1.3864,1.3862,1.3872,1.3874,1.3876,0,0,0,0,0,0,1.4362,1.4348,1.4221,1.4268,1.425,1.416,1.4135,1.4118,1.4097,1.4012,1.3996,1.4045,1.3933,1.3921,1.3906,1.3931,1.3863,1.386,1.3869,1.3873,1.3875,1.3979,0,0,0,0,0,0,1.4367,1.435,1.4356,1.4269,1.4248,1.4211,1.4136,1.4117,1.4091,1.4081,1.4004,1.399,1.393,1.3911,1.3903,1.3926,1.3858,1.3867,1.3871,1.3874,1.3973,1.3985,1.3996,0,0,0,0,0,1.4373,1.4392,1.4357,1.4343,1.4253,1.4212,1.42,1.4129,1.4094,1.41,1.4046,1.3992,1.393,1.3911,1.3901,1.3923,1.3865,1.387,1.3874,1.3968,1.3983,1.3995,0,0,0,0,0,0,1.4488,1.438,1.4339,1.433,1.4281,1.4192,1.4198,1.4147,1.4109,1.4101,1.4017,1.4001,1.3996,1.3958,1.3939,1.394,1.389,1.3893,1.3965,1.3978,1.399,1.3999,1.3855,0,0,0,0,0,1.4511,1.4484,1.4393,1.4394,1.4371,1.4289,1.4269,1.4218,1.4165,1.4144,1.4088,1.4041,1.401,1.3993,1.396,1.3967,1.3949,1.3977,1.3989,1.3999,1.4002,1.4003,1.4015,1.3892,1.3892,1.3892,0,0,1.4561,1.4499,1.4488,1.4416,1.4371,1.4348,1.4272,1.4251,1.4233,1.4142,1.4123,1.4081,1.4023,1.4019,1.4015,1.3988,1.4032,1.4005,1.4013,1.4011,1.4009,1.4021,1.4031,1.3895,1.3894,1.3894,0,0,1.464,1.459,1.4585,1.4541,1.4474,1.4419,1.4419,1.4337,1.4305,1.4284,1.4215,1.4195,1.4144,1.4105,1.4079,1.4144,1.4094,1.4136,1.4196,1.4198,1.4208,1.4216,1.4239,1.4248,1.414,1.414,1.414,0,1.4711,1.4669,1.459,1.4571,1.4543,1.4456,1.4452,1.4415,1.4342,1.4326,1.4295,1.423,1.4185,1.4171,1.4186,1.4168,1.4166,1.4144,1.4212,1.4219,1.4226,1.4247,1.4256,1.4146,1.4145,1.4145,1.4144,0,1.476,1.4733,1.4738,1.4666,1.4638,1.4628,1.4549,1.4531,1.4483,1.4433,1.4414,1.4357,1.4311,1.4304,1.4259,1.4284,1.4269,1.4227,1.4175,1.4245,1.4263,1.427,1.4154,1.4152,1.415,1.4149,0,0,1.4906,1.479,1.4793,1.4759,1.4679,1.4658,1.4645,1.4597,1.4583,1.4537,1.4525,1.4484,1.4444,1.4414,1.4364,1.4366,1.4421,1.4323,1.432,1.4343,1.4446,1.4477,1.4488,1.4387,1.4388,1.4389,1.445,0,1.4971,1.4938,1.4866,1.4857,1.4832,1.4749,1.4738,1.4689,1.4642,1.4616,1.4566,1.4538,1.4487,1.4469,1.4467,1.4414,1.444,1.4409,1.4377,1.4376,1.4393,1.4497,1.4531,1.4591,1.4457,1.4458,1.4459,0,1.5041,1.4996,1.4984,1.4904,1.4891,1.4882,1.4832,1.4808,1.4752,1.4718,1.4685,1.4629,1.4613,1.4565,1.4543,1.4524,1.4507,1.4479,1.448,1.4474,1.4422,1.4494,1.4609,1.4618,1.447,1.4469,1.4468,0,1.5148,1.5085,1.5069,1.5043,1.4951,1.4946,1.4908,1.485,1.4826,1.4784,1.4768,1.4727,1.4704,1.4674,1.4609,1.458,1.4595,1.4542,1.4568,1.4569,1.4574,1.4574,1.4687,1.4564,1.4564,1.4564,1.4564,0,1.5227,1.5223,1.5116,1.5106,1.5099,1.5019,1.5016,1.4971,1.492,1.4902,1.483,1.4815,1.473,1.4706,1.4656,1.4646,1.4636,1.461,1.4596,1.4616,1.4619,1.4603,1.4597,1.4566,1.4566,1.4565,1.4565,0,1.5345,1.5273,1.525,1.5164,1.5143,1.5142,1.5069,1.5058,1.5007,1.4985,1.4976,1.4897,1.4865,1.4797,1.4749,1.4714,1.4717,1.4693,1.4735,1.4726,1.4755,1.4754,1.4862,1.4872,1.4744,1.4745,1.4746,0,1.54,1.5394,1.5307,1.5288,1.5252,1.5223,1.5197,1.5119,1.5096,1.5032,1.503,1.4992,1.4957,1.4911,1.4851,1.4814,1.4788,1.4829,1.4782,1.4802,1.4788,1.4789,1.4788,1.4839,1.4841,1.4842,1.4843,0,1.5504,1.5469,1.5432,1.5385,1.5356,1.5315,1.5271,1.5261,1.5173,1.5151,1.5116,1.509,1.5038,1.5003,1.4956,1.492,1.4868,1.4859,1.4862,1.4882,1.4906,1.4893,1.4762,1.4856,1.4855,1.4854,1.4853,1.4853,1.5591,1.5582,1.5519,1.5482,1.544,1.54,1.5385,1.5332,1.53,1.525,1.5208,1.5177,1.5123,1.5054,1.5022,1.4999,1.4973,1.4979,1.498,1.4983,1.4991,1.491,1.499,1.499,1.4989,1.4989,1.4989,0,1.5691,1.5646,1.5613,1.5552,1.5524,1.5475,1.5424,1.5404,1.5377,1.5329,1.5296,1.5257,1.5222,1.5159,1.512,1.5113,1.5089,1.5106,1.5105,1.5098,1.5016,1.5017,1.5126,1.5126,1.5126,1.5126,1.5126,1.5126,1.5739,1.5721,1.5679,1.5641,1.5596,1.5564,1.5539,1.5503,1.5464,1.5423,1.5392,1.5351,1.5298,1.5253,1.522,1.5202,1.5191,1.5216,1.5191,1.5116,1.5103,1.5091,1.5091,1.5214,1.5214,1.5274,1.5275,1.5275]},{"header":{"parameterUnit":"m.s-1","parameterCategory":1,"la1":30.2991,"la2":30.254,"lo1":-89.0895,"lo2":-89.0444,"dx":0.0017,"dy":0.0017,"nx":28,"ny":28,"refTime":"2022-12-14T15:00:00:Z","depth":0,"parameterNumber":3,"parameterNumberName":"V-component_of_WINDS"},"data":[0,0,0,0,0,0,0,0,0,0,0,0,0,0,0,0,0,0,0,0,0,0,0,0,0,0,0,0,0,0,0,0,0,0,0,0,0,0,0,0,0,0,0,0,0,0,0,0,0,0,0,0,0,0,0,0,0,0,10.2527,10.2526,0,10.2513,10.2513,10.2513,10.2425,10.2423,10.2421,10.2419,10.2404,10.2406,10.2407,0,0,0,0,0,0,0,0,0,0,0,0,0,10.2478,10.2479,10.2527,10.2526,10.2526,10.2513,10.2513,10.2513,10.2426,10.2423,10.242,10.2418,10.2404,10.2405,10.2407,0,0,0,0,0,0,0,0,0,0,0,0,0,10.2485,10.248,10.2527,10.2481,10.2477,10.2513,10.2513,10.2513,10.2426,10.2423,10.242,10.2417,10.2403,10.2405,10.2408,10.2486,0,0,10.2415,10.2416,0,0,0,0,0,0,0,0,10.2485,10.2487,10.2488,10.2484,10.248,10.2468,10.249,10.2504,10.2427,10.2445,10.2419,10.2415,10.2428,10.2428,10.2432,10.2485,10.2485,10.2415,10.2417,10.2418,10.2418,0,0,0,0,0,0,0,10.2484,10.2487,10.2521,10.2488,10.2483,10.2462,10.2459,10.2492,10.2455,10.2444,10.2437,10.2437,10.2425,10.243,10.2431,10.2485,10.2415,10.2417,10.2419,10.242,10.2605,10.2608,0,0,0,0,0,0,10.249,10.2487,10.2522,10.2521,10.2475,10.2465,10.2463,10.2475,10.2454,10.2448,10.244,10.2433,10.2428,10.2429,10.2431,10.2523,10.2418,10.242,10.2421,10.2601,10.2606,10.2609,0,0,0,0,0,0,10.249,10.2494,10.2522,10.2502,10.2504,10.247,10.2484,10.2476,10.2481,10.2451,10.2444,10.2452,10.2425,10.2427,10.2474,10.2521,10.2421,10.2423,10.2597,10.2603,10.2608,10.2707,0,0,0,0,0,0,10.2489,10.2494,10.2523,10.2504,10.2506,10.2565,10.2487,10.2478,10.2486,10.2477,10.2461,10.2455,10.2423,10.2471,10.2476,10.2522,10.2425,10.2593,10.26,10.2606,10.2699,10.2715,10.2729,0,0,0,0,0,10.2487,10.2551,10.2525,10.253,10.2541,10.2568,10.2569,10.2531,10.249,10.2519,10.25,10.2455,10.2515,10.2476,10.2482,10.2529,10.259,10.2598,10.2605,10.2693,10.2712,10.2728,0,0,0,0,0,0,10.2575,10.2547,10.2518,10.2578,10.2576,10.2553,10.2588,10.2552,10.2562,10.2553,10.2506,10.2503,10.2557,10.2548,10.2505,10.2606,10.2545,10.2554,10.261,10.2628,10.2642,10.2643,10.2427,0,0,0,0,0,10.2602,10.2626,10.26,10.2655,10.2656,10.2623,10.2633,10.2605,10.2601,10.26,10.2584,10.2582,10.2601,10.2614,10.2629,10.2698,10.2694,10.2734,10.2749,10.2761,10.2769,10.2808,10.2826,10.2635,10.2635,10.2635,0,0,10.2656,10.2644,10.2662,10.2673,10.2668,10.2695,10.2623,10.2654,10.2674,10.2604,10.2648,10.2637,10.2632,10.2691,10.2716,10.2685,10.2821,10.2771,10.2781,10.2782,10.2818,10.2836,10.2852,10.2641,10.264,10.2639,0,0,10.2769,10.2762,10.2808,10.2806,10.2801,10.278,10.2791,10.2775,10.2765,10.2809,10.2758,10.2781,10.2814,10.2813,10.2817,10.2935,10.2895,10.2942,10.3017,10.3055,10.307,10.3083,10.3127,10.3143,10.295,10.2951,10.2951,0,10.2837,10.2876,10.2836,10.2872,10.2879,10.282,10.2867,10.2867,10.2867,10.2873,10.2839,10.288,10.2872,10.2932,10.2961,10.2966,10.2979,10.2942,10.3071,10.3084,10.3096,10.3137,10.3153,10.2956,10.2956,10.2955,10.2954,0,10.2961,10.2989,10.3027,10.3031,10.3042,10.3083,10.3051,10.3068,10.304,10.3022,10.3068,10.3058,10.3071,10.3083,10.3055,10.314,10.3121,10.308,10.3017,10.312,10.3158,10.3173,10.2964,10.2962,10.2961,10.2959,0,0,10.3126,10.311,10.3125,10.3127,10.312,10.3141,10.318,10.3195,10.3211,10.3214,10.3247,10.3278,10.3241,10.3245,10.3217,10.3251,10.3348,10.3205,10.3205,10.3233,10.3442,10.3474,10.3492,10.3322,10.3324,10.3327,10.3443,0,10.3235,10.3302,10.327,10.3341,10.3368,10.3314,10.3349,10.3349,10.3335,10.3356,10.3339,10.3363,10.3311,10.3314,10.3345,10.3329,10.3389,10.332,10.3352,10.3354,10.3355,10.3512,10.3544,10.3654,10.3458,10.346,10.3462,0,10.3371,10.3382,10.3457,10.3448,10.3458,10.349,10.3502,10.3523,10.3522,10.351,10.3517,10.3482,10.3522,10.3462,10.3516,10.347,10.3482,10.3476,10.348,10.3481,10.3414,10.3517,10.3688,10.3705,10.3484,10.3483,10.3481,0,10.3486,10.3519,10.3569,10.3573,10.3563,10.3587,10.3584,10.358,10.3592,10.3603,10.3611,10.3626,10.3634,10.3648,10.3618,10.3577,10.3678,10.3614,10.3669,10.367,10.3692,10.3691,10.3867,10.37,10.3699,10.3699,10.3699,0,10.3611,10.3659,10.3621,10.3651,10.3704,10.3668,10.3721,10.3712,10.3711,10.3739,10.3693,10.3721,10.3681,10.3705,10.3683,10.3733,10.3736,10.3728,10.3721,10.3732,10.3733,10.3738,10.373,10.3703,10.3702,10.3702,10.3701,0,10.3747,10.3723,10.3774,10.3762,10.376,10.38,10.379,10.3818,10.3802,10.3839,10.3846,10.3821,10.3847,10.382,10.3844,10.3829,10.3897,10.3879,10.3897,10.3892,10.3949,10.3944,10.4135,10.4158,10.3976,10.3977,10.3979,0,10.3828,10.3864,10.3858,10.3874,10.3875,10.3901,10.3914,10.3881,10.3896,10.3901,10.3929,10.3952,10.3969,10.4014,10.3998,10.4017,10.3999,10.4065,10.4002,10.4013,10.4001,10.4,10.4004,10.4078,10.408,10.4082,10.4083,0,10.3976,10.3964,10.3984,10.4002,10.402,10.4032,10.404,10.4056,10.4022,10.4042,10.4069,10.4083,10.4109,10.4133,10.4148,10.4145,10.4109,10.4104,10.4117,10.4128,10.4138,10.4135,10.3932,10.4099,10.4097,10.4096,10.4095,10.4095,10.4087,10.4118,10.4119,10.4145,10.4149,10.4159,10.4186,10.4175,10.4197,10.4217,10.4196,10.423,10.4232,10.4249,10.4251,10.4277,10.425,10.4269,10.4274,10.428,10.4289,10.4135,10.428,10.4279,10.4279,10.4279,10.4278,0,10.4233,10.4233,10.4257,10.4272,10.4293,10.4259,10.4268,10.4287,10.4318,10.4323,10.4342,10.4375,10.4399,10.4387,10.4408,10.4432,10.4416,10.4439,10.4436,10.4437,10.4312,10.4298,10.4451,10.4451,10.4451,10.4451,10.4451,10.4451,10.4312,10.4363,10.4352,10.4405,10.4404,10.4438,10.4446,10.4456,10.446,10.45,10.4521,10.4513,10.4512,10.4533,10.4554,10.455,10.456,10.4589,10.4579,10.4462,10.4445,10.4429,10.4416,10.4591,10.4592,10.4702,10.4703,10.4704]}]]